Weather History for KAEX - January, 1998

Change the Weather History Date:

Sunday, January 4, 1998

  Actual Average Record
Temperature  
Mean Temperature 60 °F 49 °F  
Max Temperature 64 °F 59 °F 81 °F (1989)
Min Temperature 55 °F 39 °F 11 °F (1911)
Degree Days  
Heating Degree Days 6 16  
Month to date heating degree days 64  
Since 1 July heating degree days 853  
Growing Degree Days 10 (Base 50)    
Moisture  
Dew Point 60 °F    
Average Humidity 97    
Maximum Humidity 100    
Minimum Humidity 88    
Precipitation  
Precipitation 0.00 in 0.17 in 2.25 in (2007)
Month to date precipitation 0.58  
Year to date precipitation 0.58  
Snow  
Snow 0.00 in - 0.00 in ()
Month to date snowfall  
Since 1 July snowfall  
Snow Depth -    
Sea Level Pressure  
Sea Level Pressure 30.09 in    
Wind  
Wind Speed 11 mph (SE)    
Max Wind Speed 17 mph    
Max Gust Speed -    
Visibility 6 miles    
Events Rain , Thunderstorm    
T = Trace of Precipitation, MM = Missing Value Source: NWS Daily Summary

Daily Weather History Graph

Daily Weather History Graph

Search for Another Location

Airport or City:

Trip Planner

Search our weather history database for the weather conditions in past years. The results will help you decide how hot, cold, wet, or windy it might be!

Date:

Astronomy

Jan. 04, 1998 Rise Set
Actual Time 7:09 AM CST 5:20 PM CST
Civil Twilight 6:43 AM CST 5:47 PM CST
Nautical Twilight 6:13 AM CST 6:17 PM CST
Astronomical Twilight 5:43 AM CST 6:47 PM CST
Moon 11:28 AM CST (1/4) 11:56 PM CST (1/4)
Length of Visible Light 11h 04m
Length of Day
10h 11m
Waxing Crescent, 40% of the Moon is Illuminated
Jan 4
Waxing Crescent
Jan 5
First Quarter
Jan 12
Full
Jan 20
Last Quarter
Jan 28
New

Hourly Weather History & Observations

Time (CST) Temp. Dew Point Humidity Pressure Visibility Wind Dir Wind Speed Gust Speed Precip Events Conditions
1:55 AM 57.2 °F 55.4 °F 94% 30.13 in 10.0 mi ESE 11.5 mph - N/A   Clear
2:55 AM 57.2 °F 55.4 °F 94% 30.13 in 10.0 mi ESE 13.8 mph - N/A   Clear
3:55 AM 57.2 °F 55.4 °F 94% 30.11 in 10.0 mi ESE 11.5 mph - N/A   Mostly Cloudy
4:55 AM 57.2 °F 55.4 °F 94% 30.12 in 10.0 mi SE 11.5 mph - N/A   Mostly Cloudy
5:55 AM 55.4 °F 55.4 °F 100% 30.12 in 6.0 mi SE 9.2 mph - N/A   Mostly Cloudy
6:56 AM 55.4 °F 55.4 °F 100% 30.12 in 5.0 mi ESE 6.9 mph - N/A   Mostly Cloudy
7:54 AM 55.4 °F 55.4 °F 100% 30.13 in 10.5 mi ESE 5.8 mph - N/A   Overcast
8:50 AM 57.2 °F 55.4 °F 94% 30.17 in 10.5 mi SE 6.9 mph - N/A   Overcast
9:50 AM 57.2 °F 55.4 °F 94% 30.18 in 10.5 mi ESE 11.5 mph - N/A   Overcast
10:50 AM 62.6 °F 59.0 °F 88% 30.18 in 10.5 mi SE 11.5 mph - N/A   Overcast
11:28 AM 62.6 °F 60.8 °F 94% 30.16 in 2.0 mi ESE 11.5 mph - N/A   Overcast
11:50 AM 62.6 °F 60.8 °F 94% 30.14 in 2.0 mi ESE 9.2 mph - N/A   Overcast
12:50 PM 62.6 °F 62.6 °F 100% 30.09 in 2.0 mi ESE 11.5 mph - N/A   Overcast
1:05 PM 62.6 °F 62.6 °F 100% 30.07 in 1.0 mi SE 16.1 mph - N/A Rain , Thunderstorm Thunderstorms and Rain
1:50 PM 64.4 °F 62.6 °F 94% 30.05 in 5.5 mi SE 11.5 mph - N/A Rain Light Rain
2:50 PM 62.6 °F 62.6 °F 100% 30.05 in 2.0 mi SE 11.5 mph - N/A Rain Light Rain
3:45 PM 62.6 °F 62.6 °F 100% 30.04 in 1.0 mi ESE 6.9 mph - N/A Rain Light Rain
4:50 PM 62.6 °F 62.6 °F 100% 30.03 in 3.0 mi SE 17.3 mph - N/A   Overcast
5:50 PM 62.6 °F 62.6 °F 100% 30.06 in 6.0 mi SE 11.5 mph - N/A Rain Light Rain
6:50 PM 64.4 °F 62.6 °F 94% 30.02 in 6.0 mi ESE 17.3 mph - N/A Rain Rain
7:50 PM 64.4 °F 64.4 °F 100% 30.02 in 6.0 mi ESE 17.3 mph - N/A Rain Light Rain
8:50 PM 64.4 °F 64.4 °F 100% 30.02 in 6.0 mi ESE 13.8 mph - N/A Rain Light Rain
9:50 PM 64.4 °F 64.4 °F 100% 30.06 in 7.0 mi SE 11.5 mph - N/A Rain Light Rain
10:50 PM 64.4 °F 64.4 °F 100% 30.04 in 7.0 mi SE 9.2 mph - N/A Rain Light Rain
11:50 PM 64.4 °F 64.4 °F 100% 30.00 in 7.0 mi ESE 16.1 mph - N/A Rain Light Rain